When you browse on this site, cookies collect data to enhance your experience and personalize the content and advertising you see.
Visit our Privacy Policy to learn more. By continuing to use the site, you agree to this use of cookies and data.
EN

Hourly Weather Sakkhar

Today, 7 July, Tuesday

Time Temperature Precipitation Wind Pressure Humidity
00:00 +39°C° 0 mm 3 mps 742 mmHg 31%
01:00 +40°C° 0 mm 4 mps 742 mmHg 31%
02:00 +40°C° 0 mm 5 mps 742 mmHg 32%
03:00 +38°C° 0 mm 4 mps 742 mmHg 35%
04:00 +37°C° 0 mm 3 mps 742 mmHg 37%
05:00 +33°C° 0 mm 0 mps 741 mmHg 33%
06:00 +37°C° 0 mm 1 mps 742 mmHg 32%
07:00 +39°C° 0 mm 1 mps 742 mmHg 30%
08:00 +40°C° 0 mm 1 mps 743 mmHg 28%
09:00 +42°C° 0 mm 2 mps 743 mmHg 25%
10:00 +45°C° 0 mm 2 mps 743 mmHg 23%
11:00 +47°C° 0 mm 2 mps 743 mmHg 20%
12:00 +47°C° 0 mm 3 mps 742 mmHg 18%
13:00 +48°C° 0 mm 3 mps 742 mmHg 16%
14:00 +50°C° 0 mm 4 mps 741 mmHg 14%
15:00 +50°C° 0 mm 4 mps 741 mmHg 13%
16:00 +50°C° 0 mm 4 mps 740 mmHg 13%
17:00 +50°C° 0 mm 5 mps 740 mmHg 13%
18:00 +49°C° 0 mm 4 mps 740 mmHg 14%
19:00 +46°C° 0 mm 3 mps 741 mmHg 15%
20:00 +45°C° 0 mm 3 mps 741 mmHg 16%
21:00 +43°C° 0 mm 2 mps 741 mmHg 18%
22:00 +42°C° 0 mm 2 mps 741 mmHg 21%
23:00 +40°C° 0 mm 2 mps 742 mmHg 24%

Tomorrow, 8 July, Wednesday

Time Temperature Precipitation Wind Pressure Humidity
00:00 +40°C° 0 mm 2 mps 741 mmHg 26%
01:00 +39°C° 0 mm 2 mps 741 mmHg 28%
02:00 +39°C° 0 mm 2 mps 741 mmHg 29%
03:00 +38°C° 0 mm 2 mps 741 mmHg 31%
04:00 +38°C° 0 mm 3 mps 741 mmHg 32%
05:00 +38°C° 0 mm 3 mps 742 mmHg 33%
06:00 +38°C° 0 mm 4 mps 742 mmHg 36%
07:00 +40°C° 0 mm 5 mps 743 mmHg 39%
08:00 +40°C° 0 mm 6 mps 743 mmHg 41%
09:00 +42°C° 0 mm 5 mps 744 mmHg 37%
10:00 +44°C° 0 mm 4 mps 744 mmHg 32%
11:00 +46°C° 0 mm 3 mps 744 mmHg 28%
12:00 +47°C° 0 mm 4 mps 743 mmHg 25%
13:00 +48°C° 0 mm 4 mps 743 mmHg 22%
14:00 +49°C° 0 mm 4 mps 742 mmHg 20%
15:00 +49°C° 0 mm 5 mps 742 mmHg 20%
16:00 +49°C° 0 mm 6 mps 741 mmHg 20%
17:00 +49°C° 0 mm 6 mps 741 mmHg 20%
18:00 +48°C° 0 mm 6 mps 741 mmHg 23%
19:00 +46°C° 0 mm 5 mps 742 mmHg 27%
20:00 +44°C° 0 mm 4 mps 742 mmHg 30%
21:00 +43°C° 0 mm 4 mps 742 mmHg 32%
22:00 +42°C° 0 mm 4 mps 742 mmHg 33%
23:00 +42°C° 0 mm 4 mps 742 mmHg 34%

Day after tomorrow, 9 July, Thursday

Time Temperature Precipitation Wind Pressure Humidity
00:00 +40°C° 0 mm 5 mps 742 mmHg 40%
01:00 +39°C° 0 mm 6 mps 742 mmHg 45%
02:00 +38°C° 0 mm 7 mps 742 mmHg 50%
03:00 +38°C° 0 mm 6 mps 742 mmHg 52%
04:00 +36°C° 0 mm 5 mps 742 mmHg 55%
05:00 +36°C° 0 mm 4 mps 742 mmHg 57%
06:00 +36°C° 0 mm 4 mps 742 mmHg 55%
07:00 +37°C° 0 mm 5 mps 743 mmHg 53%
08:00 +37°C° 0 mm 5 mps 743 mmHg 52%
09:00 +40°C° 0 mm 5 mps 743 mmHg 45%
10:00 +42°C° 0 mm 5 mps 742 mmHg 39%
11:00 +45°C° 0 mm 5 mps 742 mmHg 33%
12:00 +47°C° 0 mm 4 mps 741 mmHg 30%
13:00 +48°C° 0 mm 4 mps 740 mmHg 26%
14:00 +48°C° 0 mm 3 mps 740 mmHg 23%
15:00 +48°C° 0 mm 3 mps 739 mmHg 21%
16:00 +50°C° 0 mm 3 mps 738 mmHg 20%
17:00 +50°C° 0 mm 3 mps 737 mmHg 19%
18:00 +49°C° 0 mm 4 mps 737 mmHg 21%
19:00 +48°C° 0 mm 5 mps 738 mmHg 22%
20:00 +47°C° 0 mm 6 mps 738 mmHg 24%
21:00 +45°C° 0 mm 8 mps 738 mmHg 31%
22:00 +43°C° 0 mm 10 mps 738 mmHg 37%
23:00 +42°C° 0 mm 12 mps 739 mmHg 44%

10 July, Friday

Time Temperature Precipitation Wind Pressure Humidity
00:00 +40°C° 0 mm 10 mps 739 mmHg 47%
01:00 +40°C° 0 mm 9 mps 738 mmHg 51%
02:00 +39°C° 0 mm 8 mps 738 mmHg 54%
03:00 +38°C° 0 mm 8 mps 738 mmHg 55%
04:00 +38°C° 0 mm 8 mps 738 mmHg 56%
05:00 +38°C° 0 mm 8 mps 737 mmHg 57%
06:00 +39°C° 0 mm 8 mps 738 mmHg 53%
07:00 +40°C° 0 mm 7 mps 738 mmHg 49%
08:00 +41°C° 0 mm 7 mps 738 mmHg 45%
09:00 +44°C° 0 mm 7 mps 738 mmHg 38%
10:00 +46°C° 0 mm 6 mps 738 mmHg 31%
11:00 +49°C° 0 mm 5 mps 738 mmHg 23%
12:00 +50°C° 0 mm 5 mps 737 mmHg 19%
13:00 +52°C° 0 mm 4 mps 736 mmHg 15%
14:00 +53°C° 0 mm 3 mps 735 mmHg 11%
15:00 +55°C° 0 mm 4 mps 735 mmHg 10%
16:00 +55°C° 0 mm 4 mps 734 mmHg 9%
17:00 +55°C° 0 mm 5 mps 733 mmHg 8%
18:00 +52°C° 0 mm 7 mps 734 mmHg 16%
19:00 +49°C° 0 mm 9 mps 734 mmHg 24%
20:00 +46°C° 0 mm 12 mps 734 mmHg 32%
21:00 +43°C° 0 mm 11 mps 735 mmHg 38%
22:00 +41°C° 0 mm 11 mps 735 mmHg 44%
23:00 +38°C° 0 mm 10 mps 736 mmHg 50%

11 July, Saturday

Time Temperature Precipitation Wind Pressure Humidity
00:00 +38°C° 0 mm 10 mps 736 mmHg 53%
01:00 +37°C° 0 mm 10 mps 735 mmHg 56%
02:00 +35°C° 0 mm 9 mps 735 mmHg 58%
03:00 +35°C° 0 mm 8 mps 735 mmHg 59%
04:00 +34°C° 0 mm 7 mps 735 mmHg 59%
05:00 +34°C° 0 mm 6 mps 735 mmHg 60%
06:00 +35°C° 0 mm 6 mps 736 mmHg 56%
07:00 +36°C° 0 mm 6 mps 736 mmHg 52%
08:00 +38°C° 0 mm 6 mps 736 mmHg 48%
09:00 +41°C° 0 mm 5 mps 736 mmHg 39%
10:00 +43°C° 0 mm 5 mps 736 mmHg 30%
11:00 +47°C° 0 mm 4 mps 736 mmHg 22%
12:00 +49°C° 0 mm 4 mps 735 mmHg 18%
13:00 +52°C° 0 mm 5 mps 735 mmHg 15%
14:00 +53°C° 0 mm 5 mps 734 mmHg 11%
15:00 +54°C° 0 mm 5 mps 734 mmHg 10%
16:00 +54°C° 0 mm 5 mps 734 mmHg 10%
17:00 +54°C° 0 mm 5 mps 733 mmHg 10%
18:00 +51°C° 0 mm 7 mps 734 mmHg 18%
19:00 +47°C° 0 mm 9 mps 734 mmHg 26%
20:00 +43°C° 0 mm 11 mps 735 mmHg 35%
21:00 +42°C° 0 mm 11 mps 735 mmHg 40%
22:00 +39°C° 0 mm 10 mps 736 mmHg 45%
23:00 +38°C° 0 mm 10 mps 736 mmHg 50%

12 July, Sunday

Time Temperature Precipitation Wind Pressure Humidity
00:00 +37°C° 0 mm 9 mps 736 mmHg 51%
01:00 +35°C° 0 mm 9 mps 736 mmHg 52%
02:00 +35°C° 0 mm 8 mps 736 mmHg 54%
03:00 +34°C° 0 mm 8 mps 736 mmHg 55%
04:00 +34°C° 0 mm 7 mps 737 mmHg 57%
05:00 +34°C° 0 mm 7 mps 737 mmHg 59%
06:00 +34°C° 0 mm 6 mps 738 mmHg 57%
07:00 +35°C° 0 mm 6 mps 738 mmHg 56%
08:00 +36°C° 0 mm 5 mps 739 mmHg 54%
09:00 +39°C° 0 mm 5 mps 739 mmHg 47%
10:00 +41°C° 0 mm 5 mps 740 mmHg 41%
11:00 +43°C° 0 mm 4 mps 740 mmHg 34%
12:00 +44°C° 0 mm 4 mps 739 mmHg 30%
13:00 +47°C° 0 mm 4 mps 739 mmHg 26%
14:00 +48°C° 0 mm 4 mps 739 mmHg 22%
15:00 +48°C° 0 mm 3 mps 738 mmHg 21%
16:00 +48°C° 0 mm 3 mps 738 mmHg 20%
17:00 +49°C° 0 mm 2 mps 737 mmHg 18%
18:00 +48°C° 0 mm 4 mps 738 mmHg 23%
19:00 +46°C° 0 mm 6 mps 738 mmHg 27%
20:00 +44°C° 0 mm 8 mps 738 mmHg 32%
21:00 +43°C° 0 mm 8 mps 739 mmHg 37%
22:00 +40°C° 0 mm 8 mps 739 mmHg 42%
23:00 +39°C° 0 mm 8 mps 740 mmHg 48%
Show more